Voltar ao catálogo

SL-8 DEB *

AtivoLEO
NORAD 6252·DEBRIS·🇷🇺 Russia

Lançado Mar 15, 1965 de Baikonur Cosmodrome

Loading…

Próximas Passagens (próximas 24 horas)

TLE

AtualizadoSource: Space-Track

Época: Sep 12, 2026, 19:29 UTC

1 06252U 65020FD  26255.81209340 -.00000121  00000-0 -23980-3 0  9996
2 06252  56.0370 187.6040 0197588  29.7567 358.9291 12.30085490675869

Acompanhe SL-8 DEB * em tempo real com AllMySat

Download on the App Store